Location: Metacom Observatory
(41.7315°N, 71.2698°W)
Time: 05:56:28
(UTC-04:00)

Envisat - Visible Passes

Search period start: 19 April 2018 00:00
Search period end: 29 April 2018 00:00
Orbit: 764 x 766 km, 98.2° (Epoch: 18 April)

Date Brightness Start Highest point End Pass type
(mag) Time Alt. Az. Time Alt. Az. Time Alt. Az.
19 Apr 5.5 21:21:38 10° SW 21:25:05 18° W 21:28:33 10° NW visible
20 Apr 4.3 20:43:20 10° SSW 20:48:05 40° W 20:52:52 10° NNW visible
21 Apr 3.1 20:06:12 10° SSE 20:11:17 89° WSW 20:16:24 10° NNW visible
22 Apr 5.2 21:09:52 10° SW 21:13:50 23° W 21:17:51 10° NW visible
23 Apr 3.9 20:31:58 10° S 20:36:53 50° W 20:41:51 10° NNW visible
24 Apr 5.7 21:37:25 10° WSW 21:39:42 13° W 21:41:58 10° WNW visible
25 Apr 4.9 20:58:14 10° SSW 21:02:36 29° W 21:07:00 10° NW visible
26 Apr 3.5 20:20:41 10° S 20:25:43 64° W 20:30:47 10° NNW visible
27 Apr 5.6 21:25:14 10° SW 21:28:25 17° W 21:31:36 10° NW visible
28 Apr 4.5 20:46:44 10° SSW 20:51:23 36° W 20:56:04 10° NNW visible
